Wind_Speed
77 75 77 79 80 81 80 77 76 77 80 80 79 78 76 74 72 71 71 70 69 67 65 63 63 65 65 63 63 62 59 58 56 54 52 50 50 50 50 48 43 43 46 47 47 46 43 42 42 39 37 37 39 42 42 38 34 32 32 33 35 36 37 38 39 39 39 40 40 41 41 41 43 43 43 43 43 45 47 47 47 47 48 48 48 48
78 75 73 77 81 82 81 79 76 77 79 80 78 78 76 74 73 73 72 71 71 69 67 66 65 66 66 65 64 63 61 60 58 56 54 52 51 52 53 51 46 45 48 50 49 48 45 43 42 40 37 37 39 43 44 41 37 35 36 37 38 37 38 40 40 41 41 41 41 43 44 44 45 46 46 45 45 47 49 50 50 50 50 50 50 51
77 75 73 74 78 82 82 79 77 77 79 79 77 76 76 75 75 75 74 74 73 72 71 70 67 67 69 67 64 63 62 61 59 57 56 55 54 54 55 54 49 47 50 52 51 49 46 44 42 40 38 38 40 44 47 45 40 39 40 40 40 39 40 41 42 44 44 43 43 44 46 46 47 48 48 48 48 49 51 52 53 53 53 53 53 54
75 76 77 76 77 82 84 81 78 77 78 78 77 77 78 79 79 79 78 77 76 75 74 73 71 70 71 69 65 64 64 63 61 59 59 58 57 58 58 56 53 52 53 54 52 50 46 44 45 44 41 40 42 45 49 48 44 43 44 43 42 41 42 43 44 46 47 47 46 46 47 47 49 50 50 50 50 51 53 55 56 57 57 56 57 58
78 80 82 81 79 82 85 83 79 78 78 78 78 79 80 82 83 82 81 80 79 77 76 76 74 72 73 71 66 65 65 64 64 62 61 60 60 60 59 58 57 56 56 55 54 52 49 47 48 48 45 44 45 46 50 51 47 46 46 45 45 44 45 46 47 49 49 50 50 49 48 48 50 52 52 53 53 54 56 58 60 60 60 60 61 62
81 82 83 83 80 80 83 83 81 79 78 77 78 80 82 83 84 84 83 82 80 79 77 78 76 72 73 73 69 67 66 65 65 64 63 63 62 62 61 60 60 59 58 57 56 55 53 51 50 51 50 49 50 49 50 52 50 48 49 49 50 49 49 50 51 51 52 53 53 52 51 50 51 52 53 54 55 56 59 61 62 61 62 63 64 66
82 82 83 84 82 79 80 81 81 80 78 77 78 80 83 85 86 86 85 83 81 80 79 79 77 73 74 74 71 70 67 66 66 65 65 65 64 63 63 63 62 61 60 59 58 56 55 54 52 52 53 54 54 52 51 52 51 51 52 53 53 53 53 54 54 54 55 56 56 55 54 53 53 54 54 55 56 58 61 63 63 63 64 65 66 67
84 84 83 83 83 80 77 77 80 81 80 79 79 81 84 86 87 86 85 84 82 81 80 79 77 75 75 75 73 72 68 66 66 66 66 66 65 65 65 65 64 63 62 61 60 58 57 57 56 56 56 56 55 53 53 54 53 53 54 55 55 56 57 57 57 57 58 59 59 59 58 56 56 56 57 58 60 62 63 64 64 65 66 67 68 68
88 87 85 85 84 81 76 76 81 84 82 81 81 83 84 85 86 86 85 85 85 83 80 78 78 75 74 75 76 73 70 66 66 67 68 68 67 67 66 66 66 65 64 63 62 61 60 60 59 57 55 54 54 53 53 55 55 55 57 58 58 59 60 60 59 60 61 62 63 63 62 61 60 60 61 61 63 64 65 66 66 68 69 70 69 69
91 89 88 86 84 82 79 79 82 84 83 83 84 83 83 83 84 85 85 86 87 85 80 78 79 76 73 75 77 75 71 68 66 67 68 69 69 68 68 68 67 67 66 65 65 65 63 63 62 57 54 54 54 53 53 55 57 59 61 61 61 61 61 61 62 63 64 65 66 66 66 66 65 65 64 65 66 67 67 68 69 71 73 72 71 71
91 88 87 86 83 82 82 82 82 82 83 85 86 84 83 82 82 84 85 87 89 85 81 81 81 78 73 74 77 75 72 70 69 68 68 68 69 69 70 70 69 68 68 68 68 68 66 64 63 61 60 60 59 58 57 58 59 60 61 61 61 62 63 64 64 66 67 68 68 68 69 69 69 68 67 67 68 69 70 71 72 75 76 74 73 72
90 87 85 84 84 83 84 84 82 81 83 86 87 86 84 83 83 84 85 87 87 85 84 84 84 81 74 72 76 76 73 72 72 71 70 70 70 70 70 71 71 70 70 70 70 70 68 66 65 65 66 66 65 63 61 60 60 61 61 61 62 64 65 66 67 68 69 70 70 70 71 71 71 70 70 70 71 72 73 74 75 76 76 74 73 73
89 87 85 85 85 85 84 84 82 81 82 85 88 88 86 84 84 85 85 85 85 85 88 89 88 84 75 71 76 78 77 75 73 73 73 73 72 71 71 72 73 72 72 71 71 71 71 70 69 69 69 69 68 66 63 62 63 64 64 64 65 67 69 70 71 72 72 72 72 72 73 73 73 73 72 72 74 75 76 76 76 75 74 73 74 77
91 89 87 86 86 85 84 82 82 82 83 85 87 90 89 87 86 86 87 87 86 88 91 92 91 86 77 74 77 79 80 80 77 76 76 76 76 75 75 74 74 74 74 73 73 73 73 73 72 72 71 71 71 70 68 67 68 68 68 69 70 72 74 75 75 74 74 74 74 75 76 76 76 75 74 75 76 77 78 77 76 74 74 76 79 84
93 91 88 86 86 86 85 83 83 85 87 87 89 92 91 89 87 87 89 89 89 91 93 93 92 87 81 78 78 80 83 83 81 79 78 78 79 78 78 77 78 78 78 76 75 74 74 75 74 73 73 73 73 74 73 73 73 74 74 75 76 77 78 78 77 76 76 77 78 79 79 79 78 77 76 77 78 79 79 78 78 77 78 81 85 89
93 90 88 87 87 88 87 86 86 87 89 90 91 91 89 88 88 89 90 91 92 93 93 92 91 89 85 82 80 81 84 84 84 83 82 81 82 81 80 80 81 82 81 80 78 77 76 76 75 75 74 75 75 76 76 76 77 77 78 79 79 80 80 80 79 79 79 79 80 80 80 79 78 78 78 79 80 81 81 81 81 81 83 86 90 92
93 91 89 89 89 89 89 89 89 89 91 93 93 90 87 88 90 91 91 92 94 94 92 92 91 90 90 86 83 82 83 85 86 85 85 85 85 85 83 83 84 83 82 81 80 79 79 78 77 76 76 76 76 77 78 78 79 79 80 80 81 81 80 80 79 79 80 80 81 80 80 79 79 79 80 81 82 82 82 83 84 85 88 91 94 95
96 95 94 93 92 92 91 91 91 91 92 93 93 91 90 90 90 91 90 91 94 94 93 92 92 92 91 89 86 85 84 86 88 88 88 88 87 87 86 86 86 84 83 83 82 82 81 80 79 78 78 78 78 79 79 80 80 81 81 80 81 80 80 80 80 81 81 82 82 81 81 81 81 82 82 83 83 84 85 87 88 91 93 95 97 99
99 99 97 96 95 95 94 93 92 92 91 92 92 92 92 90 88 89 90 90 91 93 93 93 94 93 92 90 89 89 87 87 89 89 89 89 89 89 88 88 86 86 85 84 84 83 82 81 80 79 78 78 79 80 80 81 81 81 81 81 81 82 82 83 83 84 84 84 83 83 84 84 84 84 85 86 87 89 90 92 93 95 97 99 101 103
101 101 99 98 97 97 96 94 92 92 92 92 92 93 94 93 90 89 91 91 91 92 93 95 95 94 92 92 92 91 91 90 90 90 90 90 90 91 90 89 88 87 87 87 86 85 84 83 82 81 80 80 80 81 81 82 82 82 82 82 83 84 85 86 86 86 86 86 86 86 86 87 87 88 89 90 92 93 95 96 98 99 101 103 105 106
102 101 100 99 98 97 96 94 92 92 93 93 93 93 95 97 95 92 92 93 93 92 93 95 95 94 94 94 94 94 93 92 91 90 91 91 92 92 92 91 90 89 89 88 88 88 87 87 86 85 85 84 84 84 84 84 84 84 84 85 86 86 87 88 88 88 88 89 89 90 90 91 91 92 93 95 96 97 99 100 101 102 104 106 107 107
102 100 99 98 97 96 94 94 94 95 95 95 95 95 96 99 99 96 92 92 93 93 92 93 92 93 96 97 97 96 95 94 93 92 91 92 93 93 93 93 92 91 91 90 89 90 90 90 89 89 88 88 87 87 87 87 87 87 87 88 89 89 89 90 90 91 92 92 93 94 94 95 95 96 98 99 100 101 102 103 104 106 107 108 108 108
103 102 100 98 98 97 96 96 96 96 96 96 95 95 97 99 100 98 93 91 93 93 93 93 89 88 95 99 99 98 98 97 96 95 94 94 94 94 94 94 94 93 93 92 92 92 92 91 91 91 90 90 89 89 89 90 90 91 91 91 92 92 93 94 94 95 96 96 97 97 97 98 99 100 101 102 103 104 105 106 107 109 109 109 109 109
105 104 103 101 100 100 99 98 97 97 96 95 94 94 96 98 98 97 95 93 94 93 93 94 90 85 90 97 100 100 100 100 100 99 98 97 96 95 95 95 95 95 95 95 95 94 94 93 93 92 92 92 91 91 91 92 92 93 93 94 95 95 96 97 97 98 99 99 99 100 100 101 101 102 104 105 106 107 108 109 110 110 110 110 111 112
104 103 102 101 100 100 100 99 96 94 93 92 92 94 95 97 97 97 96 95 94 93 93 95 91 86 87 93 98 102 102 103 104 103 103 102 100 98 97 97 98 98 97 97 96 96 96 95 94 94 94 94 93 93 93 93 94 95 95 96 97 98 98 99 100 100 101 101 102 103 103 104 104 105 106 107 108 109 110 111 111 111 111 112 113 114
105 104 101 100 99 97 96 94 91 89 91 93 94 95 97 99 101 101 101 100 96 94 96 96 91 88 89 90 95 101 104 105 106 106 105 105 103 101 100 100 100 100 100 99 98 98 97 97 97 97 96 96 96 96 95 95 96 96 97 98 99 99 100 100 101 102 103 103 104 105 105 106 107 108 109 110 111 111 111 111 112 112 113 114 116 117
106 105 103 101 99 95 92 90 90 92 95 96 96 97 100 103 105 105 103 99 93 92 96 95 90 89 91 91 94 99 103 105 107 107 106 105 105 104 103 102 102 102 101 100 100 99 99 99 99 99 99 99 98 98 97 97 98 98 99 100 100 101 101 102 103 104 105 105 106 107 108 109 110 110 111 111 112 112 112 113 113 114 116 117 118 119
104 104 102 100 97 93 92 92 93 95 97 96 95 97 100 102 104 104 100 93 90 92 92 90 88 87 90 94 96 99 102 104 106 106 106 105 105 105 105 104 104 103 103 102 102 101 101 101 101 101 101 101 101 100 100 100 100 101 102 102 103 104 104 106 107 108 108 109 109 110 110 111 111 112 112 112 113 113 114 115 116 117 118 119 120 120
103 101 99 97 95 93 93 94 95 96 96 95 96 98 100 103 104 102 97 90 90 92 89 87 87 87 88 92 96 98 100 102 104 105 105 105 106 106 106 106 106 106 106 105 104 104 103 103 102 102 102 103 103 103 104 104 104 104 105 105 106 107 108 109 110 110 111 111 111 111 111 112 112 113 113 114 114 115 116 117 118 119 120 121 121 121
100 98 97 97 96 96 96 96 97 96 96 96 97 98 101 103 103 100 95 91 92 92 87 86 89 88 87 89 93 98 100 100 102 104 105 105 105 106 107 107 108 108 107 106 106 106 105 105 104 103 103 104 105 106 106 107 107 107 107 108 108 109 110 110 110 110 110 111 111 112 113 113 114 114 115 116 116 117 118 119 120 121 121 122 122 123
97 96 96 97 97 97 97 96 95 95 95 96 97 99 100 100 99 97 94 93 92 88 84 87 90 88 86 87 91 97 101 103 103 103 104 106 108 109 110 110 110 109 107 106 106 106 106 106 106 106 106 107 108 109 109 109 110 110 110 111 112 112 111 111 111 111 112 112 113 114 115 115 116 117 118 119 119 120 121 121 122 122 123 123 123 123
92 92 92 94 96 96 95 94 93 94 95 97 98 97 96 95 95 96 96 95 92 87 85 88 89 85 84 87 92 97 101 103 104 105 107 109 112 113 113 112 110 108 106 105 105 106 106 107 108 108 109 110 111 111 112 112 112 113 114 114 114 113 113 113 113 113 114 115 115 116 117 118 119 120 120 121 122 122 123 123 123 123 123 122 123 123
89 89 88 90 92 92 93 94 95 97 99 100 96 92 91 94 97 98 97 94 90 88 87 87 86 83 84 89 95 98 99 100 102 107 111 113 114 114 112 110 109 108 107 106 106 106 107 108 109 110 110 111 112 112 113 113 113 114 115 115 115 114 114 114 115 115 116 117 118 118 119 120 121 121 122 123 123 123 123 123 123 123 123 124 124 125
91 90 90 90 91 92 93 95 98 102 103 97 92 91 94 97 99 98 96 92 90 89 88 87 85 84 86 89 94 98 99 100 101 105 109 113 114 112 109 108 108 109 109 109 107 107 107 108 109 109 110 111 112 112 113 113 114 114 114 114 115 115 115 116 116 117 118 119 120 121 122 122 123 123 124 124 124 125 125 125 126 126 126 127 127 128
93 93 93 93 95 96 97 99 102 103 98 90 89 93 96 96 96 96 94 90 88 89 89 87 86 85 85 86 91 96 100 102 103 104 106 109 111 111 109 108 108 108 109 109 107 106 106 107 108 109 110 111 112 113 114 115 115 115 115 115 116 116 117 118 118 119 121 122 123 124 124 125 125 126 126 127 127 127 128 128 128 129 129 129 130 130
94 94 93 94 96 97 97 99 100 97 92 88 89 91 90 90 91 92 91 88 88 90 91 89 86 85 85 84 87 94 100 103 104 102 103 105 107 108 110 111 111 109 107 105 104 105 106 107 108 108 110 111 112 113 114 115 115 115 116 116 117 117 118 119 120 122 123 124 125 126 126 127 127 127 128 128 128 128 129 129 129 129 129 130 130 131
93 93 92 93 94 95 95 96 96 94 91 88 86 85 84 85 86 89 90 90 89 91 91 87 84 84 84 84 87 94 101 104 102 99 100 104 106 108 110 111 111 109 107 105 104 104 105 106 107 108 109 110 111 112 113 113 114 115 116 117 118 119 119 120 121 123 124 124 125 126 126 126 127 127 127 128 128 128 128 128 129 129 129 129 130 130
94 92 92 93 93 94 94 94 94 93 88 83 81 80 81 83 86 90 94 91 86 86 86 83 81 82 83 86 90 96 102 104 99 96 100 105 106 106 107 108 108 109 108 107 105 103 102 102 102 104 105 106 108 109 110 111 111 112 113 115 116 117 118 118 120 121 122 123 124 124 125 125 125 126 126 126 126 126 126 127 127 127 127 128 129 129
95 93 93 95 95 95 94 93 92 90 84 79 80 81 82 84 87 93 96 89 79 79 83 82 82 82 85 90 94 98 101 101 96 96 100 104 103 103 104 105 107 108 108 108 106 104 102 100 99 99 100 101 104 106 107 108 109 111 112 113 114 115 115 117 118 119 120 121 121 122 122 122 123 123 123 124 124 124 125 125 126 127 127 128 129 129
96 95 96 97 96 95 95 95 94 90 84 82 83 84 85 87 89 94 93 81 73 75 80 83 85 87 89 92 95 97 98 97 95 96 99 100 101 102 102 103 105 107 108 108 107 105 103 101 100 99 99 99 99 101 102 104 106 108 109 111 112 113 115 116 117 118 118 119 119 120 120 121 122 122 122 123 124 124 125 125 126 126 127 127 128 128
99 99 99 99 98 97 97 97 96 92 88 86 86 85 87 90 91 91 84 74 71 73 76 82 89 91 91 93 94 94 96 95 95 96 96 96 98 100 101 102 103 105 107 108 108 107 106 104 103 102 101 101 101 100 100 101 102 103 104 106 108 110 112 113 114 115 116 117 117 118 119 119 120 120 121 122 122 123 123 123 124 124 125 125 125 126
99 98 99 98 98 98 98 98 98 93 86 84 84 85 87 89 87 81 75 73 76 77 77 82 88 90 89 90 90 92 94 95 95 95 95 95 96 98 100 101 101 102 104 106 107 107 107 106 105 104 103 103 103 103 103 103 102 103 103 104 105 107 108 109 109 111 111 112 113 114 114 115 116 117 117 118 119 120 120 121 122 122 123 124 124 125
99 99 99 99 99 100 100 100 97 88 79 80 84 84 83 81 77 74 74 76 80 81 81 82 84 86 87 87 87 88 90 91 92 93 93 93 93 95 97 98 99 100 101 102 104 105 106 106 106 105 104 103 103 104 104 105 105 105 106 106 107 108 109 109 110 110 111 111 112 113 113 114 115 116 117 118 119 120 120 121 122 122 123 123 123 123
102 102 101 99 98 99 99 98 93 84 78 80 83 81 78 77 77 79 81 83 84 84 82 81 81 82 83 83 84 85 86 87 88 89 89 90 90 92 93 95 97 98 98 98 99 101 102 104 104 105 105 105 105 105 105 105 105 106 107 108 109 109 110 111 112 112 113 113 114 114 115 116 117 117 118 119 119 120 120 120 121 121 121 120 120 119
102 101 100 100 100 100 98 93 86 80 77 78 78 78 79 79 80 82 85 86 86 84 81 79 79 80 79 80 82 84 84 85 85 85 86 86 87 89 90 92 94 95 95 95 94 95 96 98 99 101 103 104 105 105 106 106 106 107 108 109 110 110 111 112 113 113 114 114 115 115 116 116 116 117 117 117 117 117 117 117 117 116 116 115 115 114
103 103 102 100 99 99 94 85 78 74 72 72 73 76 79 80 80 83 84 85 84 81 79 77 77 78 79 79 79 80 82 83 82 81 81 81 82 83 85 87 89 91 92 92 92 92 92 92 94 95 96 98 100 101 102 104 105 106 107 108 109 110 111 112 112 113 113 114 114 115 115 114 114 114 114 114 113 113 112 112 111 110 110 109 109 109
108 106 100 92 87 85 80 74 71 69 69 70 71 74 76 78 79 81 82 81 80 79 78 77 77 77 77 77 75 75 76 77 76 75 75 75 76 77 78 80 83 85 86 88 89 89 89 89 90 91 92 93 95 96 97 99 101 102 104 105 106 107 108 109 109 110 110 110 110 110 109 109 109 108 108 108 107 107 106 105 105 104 104 104 105 105
103 98 93 84 77 73 68 65 66 67 68 69 70 73 75 77 78 79 80 80 80 80 80 80 80 78 77 76 74 72 71 71 71 71 71 71 72 73 74 76 78 80 82 84 85 86 87 87 88 89 90 92 94 95 96 97 99 100 101 102 103 104 104 104 104 104 104 104 104 104 103 103 103 103 103 103 102 102 102 102 102 102 102 103 104 104
94 89 86 80 75 71 66 62 63 66 67 68 70 72 74 76 77 79 80 81 82 82 82 81 80 78 76 74 71 70 69 70 71 71 72 72 73 73 75 76 77 79 80 82 84 85 87 88 89 91 92 94 95 96 97 98 99 100 100 100 101 101 100 100 100 99 99 99 99 99 99 99 99 99 100 100 100 100 100 100 101 101 102 102 103 103
92 88 84 80 76 71 65 62 65 68 70 72 74 75 77 79 80 81 82 82 82 81 80 78 76 74 72 71 70 69 69 70 71 72 73 74 75 76 77 79 80 81 83 84 86 87 88 90 91 92 94 95 96 97 97 98 98 98 98 98 98 97 97 96 96 96 96 96 97 97 97 97 98 98 98 98 98 99 99 99 100 100 101 101 101 100
92 88 84 81 77 72 68 68 71 73 75 77 79 80 81 83 83 83 82 81 80 79 78 76 73 72 71 71 71 71 72 72 73 74 75 77 78 79 80 82 83 85 86 87 88 89 90 91 92 93 94 95 96 96 96 96 96 96 95 95 94 94 94 94 94 94 95 95 96 96 96 97 97 97 98 98 98 98 99 99 100 100 100 99 97 96
Wind_Direction
226 226 227 228 228 228 227 226 224 225 227 229 230 232 234 236 237 237 238 239 240 240 241 240 239 241 243 242 242 244 244 244 245 244 244 243 243 244 245 248 248 246 250 254 256 260 264 269 268 265 268 271 272 272 268 269 274 276 278 283 287 292 294 296 298 297 297 299 302 303 303 303 303 304 306 306 307 308 309 309 309 309 310 311 311 311
226 226 227 228 229 229 228 227 226 226 229 230 231 232 234 235 236 238 238 239 240 240 240 240 241 243 244 243 243 245 245 245 246 245 245 245 244 244 246 250 249 245 248 251 254 257 261 266 264 263 267 268 270 273 268 265 270 273 275 280 286 291 292 294 295 293 294 297 300 302 302 301 302 303 304 304 304 305 306 306 307 308 308 309 309 309
227 226 227 228 230 230 229 228 226 226 229 230 231 232 233 234 235 236 238 239 240 240 240 240 240 242 244 244 244 245 245 245 246 246 245 245 244 243 245 248 248 245 246 249 252 254 258 264 262 261 264 266 269 272 267 263 268 272 274 280 285 288 290 291 291 291 294 295 296 299 301 301 301 302 301 301 301 303 304 304 305 306 306 307 307 307
228 227 227 227 228 230 229 228 226 226 227 228 229 230 232 233 233 234 235 237 238 239 240 241 240 240 243 244 243 244 245 245 246 246 245 245 244 244 245 248 249 246 245 247 250 251 254 261 262 260 263 266 268 270 266 263 266 271 273 278 283 286 286 286 288 292 293 293 293 297 299 299 299 300 300 299 300 301 302 302 303 304 305 305 305 305
228 228 228 227 227 229 229 228 227 227 227 227 227 229 230 232 233 233 234 236 237 238 240 241 241 241 243 244 243 242 243 245 246 246 246 246 245 246 247 248 249 248 246 246 248 249 251 255 258 259 262 265 267 268 267 264 266 271 273 277 281 282 282 284 288 291 292 291 291 294 297 297 297 299 300 300 300 300 300 300 301 303 304 303 303 304
229 229 229 228 228 229 230 230 229 228 227 227 228 228 230 231 233 234 235 236 237 239 240 241 242 241 243 244 243 242 242 244 246 246 246 246 246 248 249 249 250 249 247 246 247 249 249 251 253 255 260 265 266 266 267 265 265 269 272 276 278 279 281 284 287 289 289 288 289 291 293 294 295 296 298 300 299 298 298 298 299 301 302 302 302 303
231 231 229 229 229 228 229 231 231 229 227 227 228 228 230 231 233 235 236 236 237 238 240 242 243 242 243 245 244 244 243 243 245 247 247 248 249 249 250 250 250 250 248 247 248 249 250 251 252 254 259 264 265 266 266 263 263 267 270 273 276 278 281 283 284 286 287 286 287 288 289 291 291 292 293 294 294 294 294 295 297 300 301 301 301 301
232 232 231 230 230 229 229 230 232 230 227 226 226 227 228 230 232 235 237 238 238 238 239 241 243 243 244 246 247 246 245 244 246 247 248 250 251 250 250 251 251 251 250 249 249 250 250 251 253 256 260 263 263 264 263 260 261 265 268 270 273 277 279 281 282 284 285 285 286 286 286 288 289 290 291 292 292 292 293 293 295 298 300 299 299 299
232 232 231 230 230 229 228 229 231 231 228 227 226 227 228 229 231 233 236 238 239 238 238 240 242 243 244 246 247 248 247 245 245 246 247 249 250 250 250 251 252 252 252 252 251 250 251 252 254 257 259 259 260 260 259 258 259 263 266 270 273 276 278 279 280 281 282 284 285 285 285 286 288 289 291 293 294 294 294 294 294 296 298 297 297 298
232 231 231 230 230 231 229 229 232 232 230 229 228 228 229 230 231 232 234 237 240 240 239 240 241 241 242 244 247 248 248 246 244 244 246 247 249 250 250 251 252 252 252 252 251 250 251 252 254 255 255 256 258 258 257 258 260 264 268 271 274 275 277 277 277 278 280 282 283 283 284 285 287 289 291 293 294 294 294 294 294 295 296 296 296 296
233 232 232 232 232 232 231 231 232 234 233 231 231 230 230 230 231 232 233 236 239 241 241 240 241 241 240 242 246 248 248 247 245 244 245 246 247 248 250 251 252 252 252 252 252 251 251 253 254 254 254 256 258 259 260 261 263 266 268 270 272 274 275 275 275 277 278 280 281 281 283 284 286 288 290 292 294 294 294 294 294 295 295 295 295 295
235 235 235 235 235 234 233 233 233 234 235 234 232 231 230 230 231 232 233 235 238 240 241 241 241 241 240 240 245 248 247 246 246 245 244 245 246 247 248 250 251 251 251 252 252 251 252 253 254 256 257 258 260 261 261 261 262 264 266 269 271 272 272 273 274 275 277 278 279 280 282 284 285 287 289 291 293 294 294 293 294 294 294 294 294 295
237 236 236 237 236 235 234 236 236 235 236 236 235 233 231 230 230 232 233 234 236 237 239 240 241 240 238 238 241 246 247 246 245 245 244 244 245 246 247 249 250 251 251 252 252 252 252 254 256 258 259 260 260 260 259 259 260 261 264 267 268 269 270 272 273 275 276 277 279 280 281 283 285 286 288 290 292 293 293 293 293 293 293 293 294 296
237 237 237 238 238 237 237 238 238 237 236 236 236 234 232 231 230 231 232 232 233 234 236 239 240 240 237 235 237 242 246 246 245 245 245 244 244 245 246 248 249 251 251 252 252 253 254 255 258 260 261 261 260 259 258 259 260 261 263 265 266 268 270 271 273 275 276 277 278 279 281 282 284 286 287 289 291 292 292 292 292 291 291 292 294 297
237 237 238 240 240 240 239 239 240 238 236 234 235 235 233 232 231 230 231 231 232 233 234 237 240 240 238 234 235 238 243 245 246 245 245 245 246 245 246 248 249 250 251 252 253 253 255 256 259 260 261 261 261 260 260 260 261 262 264 266 267 269 270 272 273 274 275 277 278 280 281 282 283 284 286 287 289 290 291 290 289 289 290 292 294 297
238 239 240 241 242 241 241 240 240 239 238 235 235 236 236 234 233 232 231 232 233 234 235 237 239 241 240 237 235 236 240 243 245 246 246 246 247 248 248 249 249 250 251 252 253 254 255 257 258 260 260 261 261 261 262 263 264 265 267 269 270 271 271 272 273 274 276 278 279 280 281 282 283 284 285 286 288 289 289 288 288 288 289 292 294 296
240 240 241 242 243 243 242 242 242 241 240 238 236 236 236 236 235 233 233 233 234 235 236 237 238 240 241 240 238 237 238 241 244 245 246 247 248 249 250 250 251 251 252 253 254 255 255 256 258 259 260 260 261 261 262 264 265 267 269 270 271 272 272 273 274 275 277 278 279 280 281 282 283 284 285 286 287 287 287 287 287 288 290 292 294 296
241 241 240 240 241 241 241 242 242 241 240 240 239 238 237 237 237 236 234 234 235 236 237 238 238 239 240 241 240 239 238 240 243 244 246 247 249 250 250 251 252 253 254 255 255 256 256 257 258 259 260 260 261 261 262 264 265 267 269 270 270 271 272 274 275 276 278 279 279 280 281 282 282 283 284 285 285 286 286 286 287 288 290 292 294 295
240 241 241 240 241 241 241 241 241 241 241 241 241 241 240 239 239 239 237 235 236 236 237 238 240 240 240 241 241 240 239 240 242 243 245 247 248 249 250 251 252 253 254 254 255 255 256 256 257 257 258 259 260 262 263 264 266 267 268 269 269 271 272 273 275 276 277 278 279 279 280 280 281 282 282 283 284 285 286 286 287 289 290 292 293 295
240 241 242 242 242 242 242 242 242 242 243 243 243 243 243 242 240 241 240 237 236 236 236 237 239 241 241 241 240 240 240 240 241 242 244 245 246 248 249 250 250 251 252 253 254 254 255 255 256 256 257 258 259 261 262 264 265 267 267 268 269 270 271 273 274 275 276 277 278 278 278 279 279 280 281 282 283 284 285 286 287 289 290 292 293 294
240 241 242 243 243 244 244 244 244 245 245 245 245 244 244 244 242 241 242 241 238 237 237 237 238 239 241 241 240 240 241 241 241 242 243 244 245 247 248 249 250 250 251 252 253 254 255 255 256 256 257 258 259 260 261 263 264 265 266 267 268 269 270 272 273 274 275 276 276 277 278 278 279 280 281 282 283 284 285 286 288 289 290 292 293 294
242 242 243 244 245 246 245 245 245 246 246 246 246 245 244 244 243 242 243 244 242 239 238 238 237 237 240 242 242 242 242 242 242 242 242 244 245 246 247 248 250 250 251 252 253 254 255 255 256 257 257 258 259 260 261 262 263 264 265 266 267 268 269 270 271 272 274 275 275 276 277 278 279 280 281 282 283 284 286 287 288 289 290 292 293 294
243 243 244 245 246 246 246 246 246 246 247 246 247 247 246 245 245 244 244 245 245 243 240 238 236 235 239 241 243 243 243 243 244 243 243 243 244 245 246 247 249 250 251 252 253 253 254 255 255 256 257 259 260 261 262 263 264 264 265 266 267 268 269 270 271 272 273 274 275 276 277 278 278 279 281 282 283 284 285 287 288 290 291 292 294 295
242 243 243 244 244 245 245 245 245 246 247 248 248 249 249 248 247 246 246 245 246 245 243 240 237 236 238 240 242 243 244 244 244 244 244 244 244 245 246 247 248 250 251 252 253 253 254 255 255 257 258 259 260 262 262 263 264 264 265 266 267 268 269 270 271 272 273 274 275 276 277 278 279 280 281 282 283 285 286 287 289 290 292 293 294 295
243 243 244 244 245 245 246 246 247 248 249 250 251 251 251 250 249 247 246 245 245 245 244 243 239 237 238 240 240 242 243 243 243 243 244 245 245 245 245 247 248 249 250 252 253 254 255 256 257 257 258 259 261 262 263 263 264 264 265 266 267 268 269 270 271 273 274 275 276 277 278 278 279 281 282 283 284 286 287 288 290 291 292 293 294 294
241 241 242 242 243 244 246 247 247 248 248 247 248 249 249 249 247 245 244 243 244 244 245 244 241 238 238 239 240 241 242 243 243 243 244 244 245 246 246 247 248 249 250 251 253 254 255 256 257 258 259 260 261 262 263 263 264 264 265 266 267 268 269 270 271 272 273 275 276 277 278 279 280 281 282 284 285 286 287 289 290 291 291 292 292 293
241 242 242 242 243 243 244 244 244 244 244 244 246 247 248 248 246 245 244 244 246 247 246 246 245 241 239 240 240 242 243 243 244 245 245 246 246 247 247 248 248 249 251 252 253 254 255 257 258 259 260 261 261 262 263 263 264 264 265 266 267 268 269 270 271 272 273 275 276 277 278 279 280 281 283 284 285 286 287 288 289 290 290 290 291 291
242 243 243 244 244 244 243 243 243 244 245 246 247 248 249 249 248 247 246 247 249 249 248 249 249 246 243 242 242 243 244 245 246 247 247 248 248 248 248 249 250 250 251 252 253 254 255 257 258 259 260 261 261 262 263 264 264 265 265 266 267 269 270 271 272 273 274 275 276 277 278 279 280 281 282 283 284 285 286 287 287 288 288 289 289 289
243 244 245 245 245 244 243 243 243 244 245 246 247 248 248 249 249 248 247 248 249 249 248 249 249 248 246 244 243 244 245 246 247 248 249 249 249 249 249 249 250 250 251 252 253 254 255 256 257 258 259 260 261 262 263 263 264 265 266 267 268 270 271 272 273 274 275 275 276 277 278 279 280 281 282 282 283 284 285 285 286 286 287 287 287 288
245 245 245 246 246 244 243 243 243 244 245 245 245 246 247 248 248 248 248 248 248 248 249 249 249 248 247 246 244 243 244 245 247 248 249 249 249 249 249 249 249 249 250 251 252 254 255 256 257 258 259 260 261 261 262 263 264 265 266 267 269 270 271 272 273 273 274 275 275 276 277 278 279 280 280 281 282 282 283 284 284 285 285 286 286 287
248 248 247 247 247 246 246 245 245 245 244 244 244 245 246 248 249 250 249 247 247 248 249 250 249 249 249 248 245 244 243 244 245 247 248 249 249 249 249 249 250 250 250 251 252 253 254 256 257 258 258 259 260 260 261 262 263 265 266 267 269 270 271 271 272 272 273 274 274 275 276 277 278 279 280 280 281 282 282 283 283 284 285 286 286 287
247 248 248 248 248 248 247 246 244 243 243 242 243 245 247 249 250 250 249 247 247 248 249 250 250 250 250 249 248 246 245 244 245 246 248 249 250 251 251 251 252 252 252 252 252 253 254 255 256 257 257 258 259 260 260 261 263 264 266 267 268 269 270 270 271 272 273 274 274 275 276 277 278 279 279 280 281 281 282 283 283 284 285 285 286 287
242 243 243 245 246 246 246 245 243 242 242 242 244 247 249 250 250 249 248 248 248 249 250 250 251 251 250 250 250 249 248 247 246 246 248 249 251 252 253 253 253 253 253 253 253 253 253 254 255 256 257 258 259 260 261 262 263 264 265 266 267 268 269 270 271 272 273 273 274 275 276 277 277 278 279 279 280 281 281 282 283 284 284 285 286 286
235 236 237 238 239 239 239 240 241 241 242 244 246 249 250 250 250 250 249 249 250 250 250 251 252 252 252 252 252 252 251 249 248 247 248 249 250 252 253 254 254 254 254 254 254 254 254 255 256 257 258 259 260 261 262 262 263 264 264 265 266 267 268 269 270 271 272 273 274 275 275 276 277 278 278 279 280 280 281 282 283 283 284 285 285 286
230 232 233 234 236 237 238 239 241 243 245 246 248 249 250 251 252 251 250 251 252 252 252 251 252 254 254 253 253 253 253 251 250 249 248 249 250 251 251 252 253 254 255 255 256 256 256 256 257 257 258 259 259 260 261 262 263 264 265 265 266 267 268 269 269 270 271 272 273 273 274 275 276 277 277 278 279 280 281 281 282 283 283 284 285 285
232 233 234 235 236 238 240 242 244 247 248 249 249 250 252 253 254 253 252 253 254 253 252 252 253 253 253 253 253 253 253 253 252 251 250 250 250 250 251 251 252 254 255 256 256 257 257 257 257 257 258 258 259 260 261 262 263 264 264 265 266 266 267 268 269 269 270 271 271 272 273 274 275 276 277 277 278 279 280 280 281 282 283 284 284 285
241 241 241 241 241 242 244 245 247 249 249 250 251 253 255 257 258 258 256 254 255 256 256 255 256 255 254 253 253 253 253 254 253 253 252 251 250 250 251 252 253 254 255 255 256 257 257 257 258 258 259 259 260 260 261 262 262 263 264 265 265 266 266 267 268 268 269 270 271 272 273 273 274 275 276 277 278 278 279 280 281 282 282 283 284 285
247 247 246 245 245 246 247 248 250 251 251 253 254 255 257 259 260 261 259 257 257 260 260 258 256 255 253 252 252 252 252 253 254 254 254 253 252 252 252 252 253 253 254 255 255 256 257 257 258 259 259 260 260 261 261 262 262 263 264 264 265 266 266 267 267 268 269 270 271 272 272 273 274 275 276 277 277 278 279 280 280 281 282 283 283 284
248 247 247 247 247 248 249 250 252 253 254 255 256 257 258 259 261 262 262 260 260 262 261 257 254 252 251 250 250 251 252 253 254 254 254 255 255 255 254 253 253 253 253 254 254 255 256 257 257 258 258 259 260 260 261 262 262 263 263 264 265 266 267 267 268 269 269 270 271 272 273 273 274 275 276 276 277 278 278 279 280 281 281 282 283 284
248 248 249 250 251 252 253 254 255 256 256 256 257 258 260 261 261 262 262 262 262 262 260 257 254 251 250 249 249 250 251 252 252 253 254 256 257 256 255 254 254 253 253 253 254 254 255 256 256 257 258 258 259 260 261 261 262 263 264 264 265 266 267 267 268 269 270 270 271 272 272 273 274 274 275 276 276 277 278 279 280 280 281 282 283 284
248 249 251 252 252 253 253 255 256 256 257 257 258 259 261 261 261 262 264 264 261 258 257 255 254 251 249 248 249 249 250 251 251 252 254 255 256 257 257 256 255 254 254 254 254 254 255 255 256 257 258 258 259 260 261 262 262 263 264 265 265 266 266 267 268 268 269 270 270 271 272 272 273 274 275 276 276 277 278 279 280 281 281 282 283 284
250 251 252 253 254 255 255 256 257 257 258 261 262 262 262 263 263 264 264 262 258 254 251 251 251 250 249 249 249 250 251 252 252 252 253 254 255 256 256 257 257 256 256 255 255 256 256 256 257 258 258 259 260 260 261 262 263 263 264 264 265 266 266 267 268 269 269 270 271 272 272 273 274 275 276 276 277 278 279 279 280 281 282 283 284 284
252 252 252 253 254 256 257 258 259 261 263 265 265 263 261 260 260 257 255 252 251 250 249 249 250 252 252 251 251 251 251 252 252 253 253 253 254 255 256 257 258 258 258 258 257 257 257 257 258 259 259 260 261 261 262 263 263 264 265 265 266 266 267 268 269 269 270 271 272 273 273 274 275 276 277 278 278 279 280 281 282 283 283 284 285 285
253 253 254 255 256 258 260 263 265 265 264 263 261 258 255 251 249 248 247 247 248 249 250 251 252 253 253 253 253 252 252 252 253 254 254 255 255 255 256 257 257 258 259 260 260 260 260 260 260 260 261 261 262 263 264 264 265 266 266 267 268 268 269 270 270 271 272 273 274 275 276 276 277 278 279 280 280 281 282 282 283 283 284 284 284 285
254 255 256 258 260 262 264 264 264 261 258 256 255 254 251 249 248 248 248 249 250 251 252 253 253 253 254 254 254 254 254 254 254 254 255 255 256 255 256 256 257 258 259 260 261 262 263 263 263 263 263 264 264 265 266 267 267 268 269 269 270 271 271 272 273 273 274 275 276 277 278 278 279 280 280 280 281 281 282 282 282 283 283 284 284 284
254 256 258 260 261 262 261 260 259 258 256 254 253 253 252 251 250 250 250 250 252 253 254 254 253 252 252 253 254 255 255 256 256 256 257 257 257 257 257 257 257 258 259 260 261 262 264 265 266 266 267 267 267 267 268 268 269 269 270 271 272 272 273 274 274 275 276 277 277 278 278 279 279 279 280 280 281 281 281 282 282 283 283 284 284 285
255 257 259 259 258 258 258 258 257 255 253 252 251 250 250 250 249 250 250 250 250 250 250 250 250 250 250 251 252 254 256 258 259 259 259 259 258 258 258 258 259 259 260 260 261 263 264 265 266 267 268 268 269 269 269 270 270 270 271 272 272 273 274 275 276 276 277 277 278 278 278 279 279 279 280 280 281 281 282 282 283 284 284 285 285 286
255 256 255 253 252 253 253 253 253 253 253 252 252 251 251 250 249 249 248 248 246 246 246 247 248 249 250 251 252 253 255 256 258 259 260 260 260 260 260 260 260 260 261 261 262 263 264 265 266 267 268 268 269 270 270 271 271 272 272 273 274 274 275 276 276 277 277 277 278 278 278 278 279 279 280 280 281 281 282 283 283 284 285 286 286 287
254 254 253 252 251 251 250 250 252 254 254 253 251 250 248 247 246 246 246 246 246 247 247 249 250 251 253 254 256 256 255 256 257 258 259 260 261 261 261 261 261 262 262 263 263 264 264 265 266 267 268 269 270 271 271 272 273 273 274 275 275 276 276 276 277 277 277 277 278 278 278 279 279 280 280 281 281 282 283 283 284 285 286 287 288 288
256 257 255 253 253 253 253 253 253 253 252 251 248 245 243 242 243 244 246 248 249 250 252 253 254 255 256 257 257 257 256 255 255 256 257 258 259 260 262 263 263 264 264 265 265 265 266 266 267 268 269 270 271 272 273 274 275 275 276 276 276 276 276 277 277 277 277 277 278 278 279 279 280 280 281 282 282 283 284 285 285 286 287 288 288 288
259 257 254 252 252 253 252 251 250 250 249 248 246 244 244 245 246 248 249 250 252 253 254 254 255 256 256 256 256 256 256 256 257 257 258 259 260 261 262 263 264 265 265 266 267 267 268 269 269 270 271 271 272 273 274 274 275 275 276 276 276 276 277 277 277 277 277 277 278 278 279 279 280 281 282 282 283 284 285 286 287 287 288 288 288 289
Height
10733 10739 10745 10749 10751 10753 10755 10759 10765 10768 10768 10773 10780 10785 10790 10797 10803 10805 10807 10812 10815 10820 10826 10830 10832 10831 10834 10840 10841 10844 10849 10852 10854 10857 10859 10860 10861 10862 10863 10865 10867 10868 10871 10874 10874 10872 10872 10873 10874 10875 10876 10876 10876 10876 10875 10875 10876 10876 10876 10875 10875 10875 10875 10875 10875 10875 10874 10873 10872 10871 10871 10870 10869 10867 10866 10865 10863 10862 10860 10858 10857 10855 10854 10852 10851 10849
10728 10736 10741 10741 10741 10743 10748 10753 10760 10763 10764 10770 10778 10782 10788 10794 10798 10799 10802 10807 10810 10815 10819 10823 10827 10827 10828 10833 10837 10841 10845 10848 10851 10853 10855 10856 10858 10860 10860 10861 10862 10864 10867 10869 10868 10868 10868 10869 10871 10872 10872 10872 10872 10872 10872 10872 10872 10873 10872 10872 10872 10872 10872 10871 10872 10871 10871 10871 10869 10868 10867 10866 10865 10864 10863 10862 10860 10858 10856 10854 10853 10852 10850 10849 10847 10845
10724 10732 10733 10731 10731 10734 10741 10748 10754 10757 10760 10767 10775 10780 10785 10788 10790 10792 10795 10799 10802 10808 10812 10815 10822 10822 10821 10827 10834 10838 10841 10843 10847 10849 10851 10852 10854 10855 10855 10856 10857 10860 10862 10863 10863 10863 10864 10865 10867 10867 10867 10868 10869 10869 10868 10867 10868 10868 10868 10868 10869 10869 10867 10867 10867 10867 10867 10867 10866 10864 10863 10862 10861 10860 10860 10858 10856 10854 10852 10851 10849 10848 10847 10845 10843 10841
10718 10721 10718 10718 10721 10725 10733 10742 10747 10751 10754 10761 10769 10773 10777 10778 10779 10782 10786 10790 10795 10800 10804 10808 10815 10817 10815 10822 10830 10834 10836 10838 10842 10845 10846 10848 10850 10849 10849 10851 10853 10854 10855 10857 10858 10858 10859 10861 10862 10862 10863 10864 10865 10865 10864 10863 10864 10864 10864 10865 10865 10864 10863 10863 10863 10862 10863 10862 10861 10860 10859 10858 10857 10856 10856 10854 10853 10850 10848 10846 10844 10843 10842 10841 10839 10837
10707 10707 10707 10711 10717 10722 10729 10737 10743 10746 10750 10755 10760 10765 10767 10767 10769 10773 10778 10783 10789 10794 10799 10802 10808 10813 10812 10817 10826 10829 10831 10833 10836 10840 10842 10843 10844 10844 10846 10847 10848 10848 10849 10852 10853 10853 10854 10856 10857 10858 10858 10860 10860 10860 10860 10860 10860 10860 10860 10860 10860 10860 10858 10858 10858 10858 10858 10857 10856 10855 10855 10854 10853 10852 10851 10850 10849 10846 10844 10841 10839 10838 10837 10836 10834 10832
10698 10699 10702 10708 10714 10720 10726 10733 10738 10741 10745 10749 10754 10758 10759 10758 10761 10765 10771 10778 10784 10790 10796 10795 10802 10811 10809 10812 10820 10823 10827 10830 10830 10835 10837 10837 10839 10840 10842 10842 10842 10843 10844 10846 10848 10849 10850 10850 10852 10853 10853 10854 10854 10855 10857 10857 10857 10856 10855 10856 10855 10854 10854 10854 10854 10854 10853 10852 10851 10851 10850 10849 10848 10847 10847 10846 10845 10842 10839 10837 10835 10833 10832 10830 10828 10826
10691 10693 10698 10704 10710 10716 10722 10729 10732 10736 10741 10744 10748 10750 10749 10751 10754 10758 10763 10771 10779 10786 10790 10791 10799 10808 10805 10807 10815 10818 10824 10827 10826 10830 10832 10832 10835 10835 10836 10836 10836 10837 10839 10841 10843 10845 10845 10845 10847 10847 10848 10848 10849 10851 10853 10853 10852 10851 10851 10851 10851 10850 10849 10849 10849 10849 10848 10847 10846 10846 10845 10844 10843 10842 10842 10842 10840 10838 10836 10832 10830 10829 10827 10825 10823 10821
10686 10688 10693 10699 10703 10709 10718 10723 10724 10726 10731 10735 10737 10737 10739 10743 10747 10752 10757 10764 10773 10778 10782 10788 10795 10802 10804 10805 10810 10814 10820 10824 10824 10826 10826 10827 10829 10830 10830 10829 10830 10832 10834 10836 10838 10840 10841 10840 10841 10842 10842 10843 10844 10846 10848 10847 10847 10847 10847 10847 10847 10846 10845 10844 10845 10844 10843 10842 10841 10840 10839 10838 10837 10837 10836 10836 10835 10833 10831 10829 10826 10824 10823 10821 10818 10816
10673 10677 10684 10688 10693 10703 10712 10714 10712 10716 10724 10727 10727 10728 10732 10736 10741 10748 10753 10758 10763 10768 10777 10784 10788 10796 10803 10802 10802 10808 10816 10821 10822 10820 10820 10821 10822 10823 10824 10824 10825 10827 10829 10832 10833 10834 10834 10834 10835 10836 10837 10838 10838 10840 10841 10841 10842 10842 10842 10842 10842 10841 10840 10840 10840 10839 10838 10837 10836 10835 10833 10832 10831 10831 10830 10830 10829 10828 10826 10824 10822 10820 10818 10816 10814 10811
10664 10672 10678 10684 10692 10701 10705 10706 10708 10713 10719 10721 10720 10723 10728 10732 10738 10744 10749 10752 10753 10761 10775 10779 10779 10789 10799 10797 10794 10802 10811 10816 10817 10815 10813 10815 10815 10817 10818 10818 10820 10822 10824 10827 10827 10828 10828 10828 10829 10830 10832 10832 10832 10834 10836 10836 10837 10837 10836 10837 10836 10835 10835 10835 10835 10834 10833 10832 10831 10829 10827 10826 10825 10824 10824 10823 10822 10821 10820 10819 10816 10814 10812 10810 10808 10806
10664 10671 10677 10686 10693 10696 10700 10703 10706 10709 10714 10715 10715 10720 10724 10729 10735 10739 10745 10747 10747 10760 10771 10771 10771 10780 10793 10795 10791 10796 10806 10808 10810 10810 10809 10809 10809 10811 10811 10812 10815 10817 10819 10820 10821 10822 10822 10823 10823 10824 10825 10825 10826 10829 10830 10830 10831 10831 10831 10831 10830 10829 10829 10829 10829 10829 10828 10827 10826 10823 10821 10820 10818 10818 10817 10816 10814 10814 10813 10812 10810 10808 10805 10803 10801 10799
10664 10671 10678 10684 10687 10690 10695 10698 10700 10704 10707 10708 10709 10714 10718 10724 10728 10731 10737 10741 10747 10759 10763 10760 10762 10769 10787 10797 10790 10789 10797 10800 10802 10804 10804 10803 10803 10805 10806 10807 10809 10811 10813 10814 10815 10816 10817 10819 10819 10818 10818 10819 10821 10823 10823 10824 10825 10825 10824 10824 10823 10822 10822 10822 10822 10822 10821 10820 10819 10818 10816 10815 10813 10812 10810 10809 10808 10807 10806 10805 10803 10801 10798 10796 10794 10792
10661 10668 10673 10675 10678 10683 10688 10691 10695 10699 10702 10703 10704 10707 10712 10718 10721 10724 10730 10736 10744 10752 10750 10749 10751 10760 10782 10794 10786 10783 10788 10792 10795 10797 10797 10798 10798 10798 10800 10801 10802 10804 10806 10808 10809 10810 10811 10813 10813 10813 10813 10814 10816 10817 10817 10817 10818 10817 10817 10817 10816 10815 10814 10815 10815 10815 10814 10814 10813 10812 10811 10809 10807 10806 10804 10803 10802 10800 10799 10798 10796 10794 10791 10789 10786 10784
10652 10658 10664 10668 10672 10677 10680 10684 10687 10690 10693 10694 10695 10697 10702 10708 10712 10717 10721 10726 10734 10738 10738 10738 10740 10753 10774 10783 10781 10779 10777 10780 10786 10789 10789 10791 10791 10791 10793 10794 10796 10796 10798 10800 10802 10804 10805 10806 10807 10808 10809 10809 10810 10810 10810 10811 10811 10811 10810 10810 10809 10808 10807 10808 10808 10808 10808 10807 10806 10805 10804 10803 10801 10800 10799 10797 10796 10794 10793 10791 10790 10788 10785 10782 10779 10777
10644 10650 10657 10662 10664 10667 10671 10674 10676 10677 10680 10682 10683 10685 10693 10701 10706 10709 10711 10716 10722 10724 10727 10730 10734 10748 10764 10771 10775 10774 10769 10771 10777 10781 10782 10783 10783 10784 10786 10788 10788 10788 10790 10793 10795 10797 10799 10800 10801 10802 10802 10803 10804 10804 10804 10804 10803 10804 10803 10803 10802 10801 10801 10801 10801 10801 10801 10800 10799 10799 10798 10796 10795 10794 10793 10791 10789 10788 10786 10785 10783 10781 10778 10775 10772 10769
10641 10647 10653 10656 10657 10659 10662 10665 10666 10667 10671 10675 10676 10681 10691 10698 10698 10700 10703 10709 10712 10714 10721 10728 10733 10744 10752 10760 10767 10767 10765 10765 10768 10771 10774 10776 10776 10778 10781 10781 10780 10780 10783 10786 10789 10791 10792 10794 10794 10795 10796 10796 10797 10797 10797 10797 10797 10796 10796 10796 10796 10795 10794 10794 10794 10794 10794 10793 10792 10791 10791 10790 10788 10787 10786 10784 10782 10781 10779 10778 10776 10773 10771 10768 10764 10761
10636 10642 10645 10648 10650 10652 10655 10658 10659 10661 10665 10668 10672 10680 10687 10686 10686 10691 10697 10701 10703 10708 10717 10723 10729 10736 10740 10749 10758 10761 10762 10761 10760 10762 10764 10766 10768 10772 10774 10773 10772 10774 10776 10779 10782 10784 10785 10786 10786 10787 10788 10789 10790 10791 10791 10790 10790 10790 10789 10789 10788 10788 10787 10787 10787 10787 10787 10786 10785 10784 10783 10782 10781 10779 10778 10777 10775 10773 10772 10770 10768 10765 10763 10760 10756 10753
10626 10629 10632 10634 10637 10640 10644 10647 10649 10653 10657 10662 10669 10675 10675 10674 10679 10687 10691 10694 10697 10704 10713 10717 10722 10728 10732 10741 10749 10752 10756 10754 10752 10753 10754 10757 10760 10763 10766 10765 10767 10770 10771 10773 10774 10775 10777 10777 10778 10779 10780 10781 10782 10782 10783 10783 10784 10784 10783 10783 10782 10781 10781 10780 10780 10779 10779 10778 10777 10776 10775 10774 10773 10771 10770 10768 10766 10765 10763 10761 10759 10757 10754 10751 10748 10745
10617 10619 10621 10625 10629 10631 10634 10638 10642 10648 10652 10658 10663 10663 10664 10669 10675 10678 10682 10689 10692 10697 10706 10709 10712 10719 10726 10734 10738 10740 10744 10745 10743 10744 10746 10748 10750 10752 10755 10758 10761 10764 10764 10765 10766 10766 10768 10768 10770 10771 10771 10772 10773 10774 10775 10776 10776 10777 10777 10777 10776 10775 10774 10774 10773 10772 10771 10770 10769 10768 10767 10766 10765 10763 10761 10760 10758 10756 10754 10752 10750 10748 10745 10742 10739 10736
10608 10611 10614 10618 10622 10624 10628 10634 10641 10646 10648 10650 10653 10655 10658 10662 10666 10669 10674 10681 10684 10689 10697 10702 10705 10713 10720 10724 10726 10728 10731 10734 10735 10736 10737 10739 10740 10741 10744 10747 10752 10755 10755 10756 10757 10758 10760 10760 10761 10762 10763 10765 10766 10766 10767 10768 10769 10770 10770 10770 10769 10768 10768 10767 10766 10764 10763 10762 10760 10759 10758 10757 10756 10755 10753 10752 10750 10748 10746 10744 10741 10739 10736 10733 10730 10727
10598 10603 10607 10610 10613 10618 10625 10633 10638 10638 10637 10640 10643 10648 10652 10653 10656 10661 10666 10672 10677 10682 10689 10693 10700 10709 10711 10710 10713 10716 10719 10723 10726 10728 10729 10730 10730 10732 10734 10737 10741 10745 10746 10749 10750 10751 10751 10752 10753 10754 10755 10757 10758 10759 10760 10761 10762 10762 10762 10762 10762 10761 10760 10759 10757 10756 10755 10753 10752 10750 10749 10748 10747 10745 10744 10743 10741 10739 10737 10734 10732 10729 10726 10723 10720 10717
10593 10597 10601 10603 10607 10613 10619 10624 10625 10624 10626 10631 10634 10639 10644 10644 10647 10652 10659 10666 10669 10674 10681 10685 10696 10706 10702 10699 10703 10706 10709 10713 10715 10719 10721 10719 10720 10723 10726 10728 10731 10734 10737 10740 10743 10743 10743 10744 10745 10746 10747 10749 10751 10753 10754 10754 10755 10755 10755 10754 10754 10753 10752 10751 10749 10748 10746 10745 10743 10742 10740 10739 10738 10736 10734 10733 10731 10729 10726 10724 10722 10719 10716 10713 10710 10707
10583 10586 10590 10594 10597 10600 10605 10610 10612 10615 10619 10623 10628 10634 10636 10637 10641 10646 10652 10658 10657 10664 10673 10676 10689 10702 10695 10690 10694 10696 10699 10703 10704 10708 10709 10708 10711 10714 10717 10720 10722 10724 10727 10729 10732 10733 10735 10736 10737 10739 10740 10742 10744 10746 10746 10747 10747 10747 10747 10746 10746 10745 10743 10742 10741 10739 10738 10737 10735 10734 10733 10732 10730 10728 10726 10724 10721 10719 10717 10714 10711 10708 10706 10703 10700 10697
10570 10573 10577 10582 10584 10586 10592 10598 10602 10607 10612 10618 10625 10629 10628 10630 10634 10635 10641 10646 10646 10656 10663 10665 10682 10697 10689 10681 10686 10687 10689 10692 10692 10695 10697 10697 10701 10704 10707 10711 10713 10715 10716 10718 10720 10723 10726 10729 10731 10732 10734 10735 10737 10738 10738 10739 10739 10738 10738 10737 10736 10736 10734 10733 10732 10730 10729 10728 10727 10726 10725 10724 10722 10720 10718 10715 10713 10710 10707 10704 10702 10699 10696 10693 10690 10687
10559 10561 10566 10571 10573 10576 10583 10591 10600 10608 10613 10618 10620 10618 10617 10619 10620 10622 10627 10630 10635 10648 10652 10655 10675 10688 10679 10671 10674 10676 10676 10677 10677 10681 10683 10685 10690 10694 10698 10701 10702 10704 10707 10709 10712 10715 10718 10721 10724 10726 10727 10728 10729 10730 10730 10731 10730 10730 10729 10728 10727 10726 10725 10724 10723 10722 10721 10720 10719 10718 10716 10715 10713 10711 10708 10706 10703 10700 10698 10695 10692 10690 10687 10684 10681 10677
10543 10546 10553 10559 10563 10570 10580 10589 10599 10602 10600 10601 10601 10599 10600 10600 10601 10607 10609 10614 10629 10641 10641 10649 10666 10672 10665 10662 10664 10664 10664 10663 10663 10667 10671 10675 10679 10684 10688 10691 10692 10695 10698 10702 10705 10708 10711 10714 10715 10717 10718 10719 10720 10721 10722 10722 10722 10721 10720 10719 10718 10717 10717 10716 10715 10714 10713 10712 10711 10710 10708 10706 10704 10701 10699 10696 10693 10691 10688 10686 10683 10680 10677 10674 10671 10667
10532 10537 10545 10550 10557 10567 10575 10580 10584 10582 10579 10584 10587 10587 10588 10588 10591 10595 10600 10616 10632 10634 10636 10648 10655 10655 10655 10658 10659 10656 10653 10652 10653 10657 10662 10667 10671 10675 10678 10681 10684 10686 10690 10694 10697 10700 10703 10705 10706 10707 10708 10709 10710 10711 10712 10713 10713 10713 10712 10711 10710 10709 10708 10708 10707 10707 10706 10705 10704 10702 10700 10698 10695 10692 10689 10687 10684 10681 10679 10676 10673 10670 10667 10664 10660 10656
10526 10533 10543 10549 10557 10565 10567 10569 10571 10570 10573 10579 10580 10580 10581 10582 10584 10590 10603 10621 10626 10624 10636 10644 10639 10642 10650 10653 10653 10651 10645 10644 10646 10650 10656 10660 10663 10667 10670 10672 10675 10678 10681 10684 10687 10690 10693 10695 10696 10698 10699 10700 10701 10702 10703 10703 10704 10703 10703 10702 10702 10701 10700 10700 10699 10698 10697 10697 10695 10693 10691 10688 10685 10683 10680 10677 10675 10672 10669 10666 10663 10660 10656 10653 10649 10645
10524 10534 10543 10546 10551 10555 10555 10557 10560 10561 10564 10567 10568 10571 10572 10572 10576 10586 10603 10614 10611 10614 10628 10628 10622 10633 10641 10641 10644 10644 10641 10640 10640 10642 10648 10651 10652 10655 10659 10663 10665 10666 10669 10673 10676 10680 10683 10685 10688 10689 10691 10693 10693 10694 10694 10694 10694 10694 10694 10694 10693 10693 10692 10691 10690 10689 10688 10687 10684 10682 10679 10677 10675 10672 10670 10667 10664 10661 10658 10655 10652 10649 10645 10641 10638 10635
10522 10532 10538 10538 10541 10543 10543 10547 10551 10551 10552 10554 10556 10560 10560 10562 10571 10584 10598 10603 10598 10604 10616 10613 10614 10625 10627 10627 10630 10630 10632 10634 10632 10631 10635 10638 10640 10643 10645 10648 10649 10652 10657 10663 10668 10671 10673 10676 10680 10682 10683 10684 10683 10683 10684 10684 10684 10684 10685 10685 10684 10683 10682 10681 10680 10679 10677 10675 10672 10670 10668 10666 10663 10661 10658 10655 10652 10649 10647 10644 10641 10637 10634 10631 10627 10624
10518 10525 10529 10530 10530 10531 10534 10539 10541 10541 10543 10544 10545 10548 10552 10560 10571 10581 10589 10588 10587 10597 10603 10599 10606 10618 10616 10612 10615 10617 10621 10624 10623 10623 10624 10624 10625 10627 10628 10629 10633 10640 10650 10657 10660 10663 10665 10668 10671 10673 10674 10673 10672 10673 10673 10673 10674 10675 10675 10674 10673 10673 10671 10670 10668 10666 10664 10662 10660 10658 10656 10654 10651 10648 10646 10643 10640 10638 10635 10632 10629 10626 10623 10620 10617 10614
10509 10514 10519 10519 10518 10522 10527 10528 10529 10531 10531 10529 10533 10543 10554 10563 10569 10572 10574 10575 10581 10590 10590 10589 10603 10611 10602 10596 10602 10607 10610 10613 10617 10617 10614 10610 10609 10610 10615 10620 10627 10636 10643 10648 10651 10654 10657 10659 10659 10660 10661 10660 10661 10661 10662 10663 10664 10665 10663 10662 10662 10661 10660 10658 10655 10653 10652 10650 10648 10646 10644 10641 10639 10636 10633 10631 10628 10626 10623 10621 10618 10615 10612 10609 10606 10603
10495 10500 10505 10505 10506 10511 10514 10513 10516 10517 10513 10518 10534 10548 10554 10556 10556 10558 10564 10573 10579 10580 10581 10588 10597 10595 10586 10586 10593 10597 10598 10603 10608 10608 10604 10600 10598 10600 10609 10616 10621 10628 10631 10634 10638 10641 10644 10646 10646 10647 10648 10648 10649 10650 10651 10653 10654 10653 10652 10651 10651 10650 10648 10646 10644 10642 10640 10637 10635 10634 10631 10629 10626 10624 10621 10619 10617 10614 10612 10610 10607 10604 10601 10598 10595 10592
10477 10482 10488 10489 10491 10494 10497 10498 10498 10495 10500 10522 10541 10544 10543 10544 10546 10553 10564 10571 10571 10570 10576 10582 10582 10579 10580 10583 10585 10586 10588 10592 10595 10595 10594 10593 10592 10595 10603 10607 10611 10615 10616 10620 10625 10629 10632 10634 10636 10637 10638 10638 10640 10640 10639 10640 10639 10639 10639 10639 10639 10638 10637 10635 10633 10631 10628 10625 10623 10621 10618 10616 10614 10611 10609 10607 10605 10603 10601 10598 10596 10593 10590 10587 10584 10580
10460 10465 10471 10475 10476 10478 10483 10484 10481 10486 10507 10530 10536 10532 10533 10537 10541 10549 10559 10563 10561 10562 10567 10570 10571 10570 10571 10574 10575 10575 10575 10576 10579 10583 10584 10584 10585 10589 10594 10597 10598 10600 10603 10609 10614 10618 10621 10623 10624 10625 10626 10626 10626 10625 10625 10625 10625 10625 10626 10627 10627 10626 10625 10623 10621 10619 10616 10612 10610 10607 10605 10603 10601 10599 10597 10596 10594 10592 10589 10586 10584 10581 10578 10575 10572 10569
10454 10459 10464 10468 10469 10472 10478 10479 10481 10495 10514 10523 10524 10527 10531 10533 10536 10542 10548 10551 10550 10549 10551 10556 10560 10558 10558 10563 10566 10563 10560 10560 10565 10574 10576 10574 10575 10579 10583 10585 10586 10590 10597 10602 10605 10607 10609 10609 10610 10610 10610 10611 10611 10610 10611 10611 10612 10613 10613 10613 10613 10612 10611 10610 10608 10605 10601 10598 10596 10594 10592 10591 10590 10588 10586 10584 10582 10579 10576 10574 10571 10569 10566 10563 10560 10557
10455 10459 10464 10467 10469 10473 10477 10479 10484 10493 10504 10513 10522 10530 10531 10530 10531 10530 10530 10536 10540 10537 10540 10548 10550 10546 10549 10554 10554 10550 10547 10545 10554 10567 10564 10557 10561 10569 10574 10578 10581 10586 10590 10591 10592 10594 10594 10594 10596 10596 10597 10598 10597 10597 10597 10598 10600 10600 10599 10598 10598 10597 10596 10595 10593 10589 10586 10584 10583 10582 10581 10580 10578 10576 10574 10571 10569 10566 10564 10561 10559 10556 10554 10551 10548 10544
10452 10456 10460 10462 10465 10469 10472 10476 10479 10485 10501 10517 10525 10528 10527 10525 10522 10513 10508 10521 10535 10532 10530 10536 10535 10533 10537 10541 10539 10536 10531 10534 10550 10557 10544 10539 10554 10565 10567 10572 10575 10576 10578 10578 10579 10581 10581 10582 10584 10584 10584 10584 10583 10582 10583 10584 10586 10586 10585 10583 10582 10581 10582 10580 10576 10573 10572 10572 10571 10570 10570 10568 10566 10563 10561 10559 10557 10554 10551 10549 10546 10544 10541 10538 10535 10532
10444 10449 10452 10451 10456 10462 10466 10471 10475 10483 10503 10518 10518 10517 10516 10513 10510 10497 10490 10511 10532 10525 10514 10517 10518 10518 10522 10525 10523 10519 10519 10531 10545 10540 10525 10531 10550 10555 10556 10561 10563 10563 10566 10566 10567 10568 10569 10570 10571 10570 10570 10570 10568 10568 10569 10570 10570 10571 10570 10569 10568 10568 10567 10563 10560 10560 10560 10560 10559 10558 10557 10555 10552 10550 10548 10546 10544 10541 10538 10536 10533 10530 10528 10525 10522 10519
10438 10442 10443 10443 10450 10459 10462 10465 10469 10480 10498 10508 10506 10507 10505 10501 10496 10483 10482 10508 10525 10510 10497 10500 10503 10505 10508 10508 10507 10508 10513 10524 10530 10524 10520 10530 10538 10539 10543 10548 10549 10551 10553 10553 10554 10555 10555 10556 10557 10557 10557 10556 10556 10556 10556 10556 10557 10557 10556 10556 10556 10555 10552 10548 10548 10549 10549 10547 10546 10545 10543 10541 10539 10537 10534 10532 10530 10527 10525 10523 10520 10518 10515 10512 10509 10506
10430 10433 10434 10437 10445 10451 10454 10457 10462 10474 10489 10494 10495 10497 10492 10484 10480 10478 10487 10505 10505 10490 10486 10487 10484 10488 10492 10493 10496 10500 10505 10511 10516 10517 10519 10523 10524 10526 10530 10532 10534 10537 10539 10540 10541 10542 10543 10544 10545 10545 10545 10545 10544 10545 10544 10544 10545 10544 10544 10543 10542 10540 10537 10536 10537 10536 10534 10533 10532 10531 10530 10528 10526 10524 10521 10519 10517 10514 10512 10510 10507 10505 10502 10499 10496 10492
10423 10427 10428 10432 10438 10441 10446 10449 10451 10464 10482 10488 10485 10485 10481 10474 10476 10483 10489 10486 10475 10470 10471 10468 10465 10471 10478 10484 10491 10495 10496 10501 10506 10508 10511 10513 10514 10516 10517 10518 10521 10523 10525 10528 10530 10530 10531 10532 10533 10533 10533 10533 10533 10533 10532 10533 10533 10532 10531 10531 10528 10525 10524 10524 10524 10522 10521 10521 10519 10518 10517 10515 10513 10511 10508 10506 10503 10501 10499 10497 10494 10492 10489 10485 10482 10478
10416 10418 10419 10424 10430 10432 10435 10436 10441 10461 10483 10482 10471 10470 10471 10469 10470 10471 10465 10455 10449 10449 10453 10456 10460 10466 10471 10478 10485 10486 10487 10492 10494 10496 10500 10504 10506 10507 10508 10510 10510 10511 10513 10515 10516 10518 10520 10520 10520 10520 10520 10520 10520 10520 10520 10520 10520 10519 10518 10517 10515 10513 10513 10512 10510 10509 10509 10508 10506 10505 10504 10502 10499 10497 10495 10492 10490 10487 10485 10483 10479 10477 10474 10471 10467 10464
10403 10407 10411 10418 10424 10424 10426 10431 10440 10458 10471 10463 10452 10453 10456 10454 10451 10446 10440 10435 10434 10437 10444 10453 10459 10461 10464 10469 10472 10475 10479 10481 10483 10487 10490 10494 10497 10499 10500 10501 10501 10501 10501 10501 10502 10504 10506 10506 10507 10508 10507 10507 10508 10508 10508 10508 10507 10506 10505 10503 10502 10501 10500 10499 10498 10497 10496 10495 10493 10492 10490 10488 10486 10483 10481 10478 10476 10473 10471 10468 10465 10462 10459 10456 10452 10449
10398 10403 10406 10412 10415 10415 10418 10424 10431 10440 10446 10444 10442 10441 10440 10439 10438 10436 10431 10429 10429 10434 10442 10449 10452 10454 10457 10458 10460 10466 10469 10470 10473 10478 10480 10482 10486 10487 10488 10490 10492 10492 10491 10491 10491 10491 10492 10493 10494 10495 10495 10496 10496 10496 10496 10495 10494 10493 10491 10489 10489 10488 10487 10486 10485 10484 10483 10482 10480 10478 10476 10474 10472 10469 10466 10464 10461 10459 10456 10453 10450 10447 10444 10441 10437 10433
10391 10393 10396 10402 10403 10402 10407 10415 10421 10427 10432 10434 10435 10432 10429 10429 10431 10428 10425 10425 10428 10433 10438 10440 10441 10444 10446 10448 10451 10455 10457 10459 10464 10467 10470 10472 10474 10475 10478 10480 10480 10481 10481 10481 10481 10481 10481 10482 10482 10482 10483 10483 10483 10483 10483 10482 10482 10481 10478 10476 10476 10474 10473 10472 10472 10471 10470 10468 10466 10464 10462 10460 10457 10454 10452 10449 10447 10445 10442 10439 10436 10433 10430 10427 10423 10419
10382 10384 10388 10392 10392 10392 10401 10411 10415 10417 10420 10422 10423 10422 10419 10419 10420 10420 10420 10421 10423 10425 10426 10427 10428 10431 10436 10441 10444 10447 10449 10452 10455 10457 10460 10462 10463 10465 10467 10468 10469 10470 10470 10470 10471 10472 10472 10472 10472 10471 10471 10470 10470 10470 10469 10469 10469 10467 10465 10464 10463 10461 10461 10460 10458 10458 10456 10454 10452 10450 10447 10445 10443 10440 10438 10435 10433 10430 10428 10425 10422 10420 10417 10413 10410 10406
10376 10376 10376 10379 10383 10388 10397 10404 10405 10405 10409 10412 10414 10414 10412 10410 10411 10411 10410 10411 10412 10412 10413 10415 10418 10423 10429 10433 10437 10441 10444 10446 10447 10448 10450 10451 10453 10454 10456 10457 10458 10459 10459 10460 10461 10461 10461 10462 10462 10461 10459 10458 10457 10457 10456 10455 10454 10453 10452 10451 10450 10449 10449 10447 10446 10444 10442 10440 10438 10436 10433 10432 10430 10427 10425 10422 10420 10417 10415 10412 10410 10407 10404 10401 10397 10394
10366 10366 10368 10372 10377 10382 10391 10398 10399 10398 10401 10404 10406 10406 10403 10400 10397 10396 10397 10399 10401 10402 10405 10409 10413 10418 10423 10427 10431 10435 10437 10438 10439 10440 10441 10442 10443 10444 10444 10445 10446 10446 10447 10449 10449 10450 10451 10451 10450 10449 10447 10445 10444 10443 10442 10441 10440 10440 10440 10439 10437 10437 10436 10434 10433 10431 10429 10427 10425 10422 10420 10418 10416 10414 10412 10409 10407 10405 10402 10400 10397 10395 10392 10388 10385 10381
10359 10363 10367 10368 10371 10379 10389 10394 10392 10389 10389 10391 10393 10392 10388 10384 10382 10383 10386 10390 10393 10397 10401 10405 10410 10414 10417 10420 10423 10425 10427 10429 10430 10431 10432 10433 10433 10434 10434 10434 10433 10434 10435 10436 10436 10437 10438 10437 10437 10436 10434 10432 10431 10430 10429 10428 10427 10426 10426 10425 10424 10424 10422 10421 10420 10418 10416 10414 10412 10409 10408 10406 10403 10401 10399 10397 10394 10392 10390 10387 10385 10382 10379 10376 10372 10368
10355 10360 10361 10360 10365 10374 10380 10380 10377 10376 10376 10376 10376 10376 10375 10374 10375 10377 10381 10385 10388 10392 10395 10399 10404 10407 10409 10411 10413 10415 10417 10418 10420 10422 10423 10423 10424 10424 10424 10423 10422 10422 10422 10422 10423 10424 10424 10424 10424 10423 10421 10419 10418 10418 10417 10415 10414 10412 10412 10411 10410 10410 10409 10408 10407 10405 10403 10401 10399 10397 10395 10393 10391 10389 10386 10385 10383 10380 10378 10376 10373 10369 10366 10362 10359 10356